Volver al catálogo

FLOCK 4Q 33

ActivoCienciaPO
NORAD 58308·PAYLOAD·🇺🇸 United States

Lanzado Nov 11, 2023 desde Vandenberg Space Force Base

Loading…

Próximos Pases (próximas 24 horas)

TLE

ActualizadoSource: Space-Track

Época: Sep 14, 2026, 05:45 UTC

1 58308U 23174BE  26257.24010242  .00268368  00000-0  13108-2 0  9996
2 58308  97.3760 353.8272 0004743 208.6966 151.4042 15.81598886159789

Sigue FLOCK 4Q 33 en tiempo real con AllMySat

Download on the App Store